                ,  0.945,  1.145,  1.345,  1.545,  1.745,  1.945,  2.145,  2.345,  2.545,  2.745,  2.945,  3.145,  3.345,  3.545,  3.745,  3.945,  4.145,  4.345,  4.545,  4.745,  4.945,  5.145,  5.345,  5.545,  5.745,  5.945,  6.145,  6.345,  6.545,  6.745,  6.945,  7.145,  7.345,  7.545,  7.745,  7.945,  8.145,  8.345,  8.545,  8.745,  8.945,  9.145,  9.345,  9.545,  9.745,  9.945
2000/04/19 00:00,  999.0,  999.0,  999.0,  999.0,  999.0,  999.0,  999.0,  999.0,  999.0,  999.0,  999.0,  999.0,  999.0,  999.0,  999.0,  999.0,  999.0,  999.0,  999.0,  999.0,  999.0,  999.0,  999.0,  999.0,  999.0,  999.0,  999.0,  999.0,  999.0,  999.0,  999.0,  999.0,  999.0,  999.0,  999.0,  999.0,  999.0,  999.0,  999.0,  999.0,  999.0,  999.0,  999.0,  999.0,  999.0,  999.0
2000/04/19 00:10,  999.0,  999.0,  999.0,  999.0,  999.0,    0.0,   -0.0,    0.1,   -0.5,   -0.3,   -0.4,  999.0,  999.0,   -0.3,  999.0,  999.0,    0.1,  999.0,    0.3,   -0.1,   -0.3,   -0.3,   -0.3,   -0.3,  999.0,   -0.6,  999.0,   -0.6,   -0.6,  999.0,   -0.4,   -0.5,  999.0,  999.0,  999.0,  999.0,  999.0,  999.0,  999.0,  999.0,  999.0,  999.0,  999.0,  999.0,  999.0,  999.0
2000/04/19 00:20,    0.1,  999.0,   -0.1,  999.0,  999.0,  999.0,  999.0,  999.0,    0.4,    0.2,  999.0,    0.1,    0.3,  999.0,  999.0,  999.0,  999.0,    0.3,    0.2,   -0.0,    0.2,   -0.3,   -0.4,   -0.4,   -0.5,   -0.4,   -0.4,   -0.5,   -0.6,   -0.5,   -0.5,   -0.3,  999.0,  999.0,  999.0,  999.0,  999.0,  999.0,  999.0,  999.0,  999.0,  999.0,  999.0,  999.0,  999.0,  999.0
2000/04/19 00:30,    0.3,    0.1,  999.0,  999.0,  999.0,  999.0,  999.0,    0.2,    0.5,    0.2,    0.2,    0.1,    0.1,  999.0,  999.0,  999.0,   -0.0,   -0.0,  999.0,    0.2,    0.1,   -0.5,   -0.5,   -0.5,   -0.5,   -0.6,   -0.7,   -0.6,   -0.6,   -0.5,   -0.6,   -0.6,  999.0,  999.0,  999.0,  999.0,  999.0,  999.0,  999.0,  999.0,  999.0,  999.0,  999.0,  999.0,  999.0,  999.0
2000/04/19 00:40,   -0.3,  999.0,  999.0,  999.0,  999.0,  999.0,   -0.0,   -0.1,   -0.4,    0.2,   -0.0,    0.4,  999.0,  999.0,  999.0,   -0.1,  999.0,    0.0,    0.1,    0.1,   -0.3,   -0.6,   -0.6,   -0.6,   -0.6,   -0.5,   -0.6,   -0.5,  999.0,  999.0,  999.0,  999.0,  999.0,  999.0,  999.0,  999.0,  999.0,  999.0,  999.0,  999.0,   -0.3,   -0.1,   -0.2,   -0.3,   -0.3,  999.0
2000/04/19 00:50,    0.1,  999.0,   -0.0,  999.0,  999.0,  999.0,  999.0,   -0.2,    0.2,   -0.3,  999.0,  999.0,  999.0,  999.0,  999.0,  999.0,   -0.0,   -0.0,   -0.0,   -0.4,   -0.6,   -0.5,   -0.5,   -0.4,   -0.3,   -0.3,  999.0,  999.0,  999.0,  999.0,  999.0,   -0.4,  999.0,  999.0,  999.0,   -0.3,   -0.1,   -0.2,   -0.5,   -0.7,   -0.1,   -0.5,  999.0,   -0.4,  999.0,   -0.2
2000/04/19 01:00,  999.0,  999.0,    0.0,  999.0,  999.0,   -0.0,  999.0,    0.6,  999.0,  999.0,  999.0,  999.0,  999.0,  999.0,  999.0,  999.0,  999.0,  999.0,   -0.1,  999.0,  999.0,   -0.4,  999.0,   -0.5,   -0.1,   -0.8,   -0.5,   -0.5,   -0.5,   -0.4,   -0.5,  999.0,    0.1,  999.0,  999.0,  999.0,   -0.7,  999.0,  999.0,  999.0,  999.0,  999.0,  999.0,  999.0,  999.0,  999.0
2000/04/19 01:10,  999.0,  999.0,  999.0,  999.0,  999.0,  999.0,   -0.1,    0.3,  999.0,   -0.2,    0.1,  999.0,  999.0,  999.0,  999.0,  999.0,  999.0,  999.0,   -0.0,   -0.3,   -0.6,   -0.6,   -0.7,   -0.6,   -0.6,   -0.5,   -0.5,   -0.6,  999.0,  999.0,  999.0,  999.0,    0.1,  999.0,  999.0,  999.0,  999.0,  999.0,  999.0,  999.0,  999.0,  999.0,  999.0,  999.0,  999.0,  999.0
2000/04/19 01:20,  999.0,   -0.2,  999.0,  999.0,  999.0,  999.0,    0.1,    0.2,   -0.0,    0.1,  999.0,  999.0,  999.0,  999.0,  999.0,  999.0,  999.0,    0.1,  999.0,   -0.8,   -0.6,   -0.6,   -0.6,   -0.5,   -0.4,   -0.5,   -0.5,   -0.6,  999.0,  999.0,  999.0,  999.0,    0.2,  999.0,  999.0,  999.0,  999.0,  999.0,  999.0,  999.0,  999.0,  999.0,  999.0,  999.0,  999.0,  999.0
2000/04/19 01:30,  999.0,  999.0,  999.0,  999.0,  999.0,  999.0,    0.7,   -0.2,    0.2,   -0.3,    0.3,    0.1,    0.0,  999.0,  999.0,  999.0,  999.0,  999.0,    0.2,   -0.5,   -0.5,   -0.6,   -0.5,   -0.5,   -0.4,   -0.5,   -0.3,  999.0,  999.0,  999.0,  999.0,  999.0,  999.0,  999.0,  999.0,  999.0,  999.0,  999.0,  999.0,  999.0,  999.0,  999.0,  999.0,  999.0,  999.0,  999.0
2000/04/19 01:40,  999.0,  999.0,  999.0,  999.0,  999.0,  999.0,  999.0,  999.0,    0.3,   -0.1,   -0.2,    0.1,    0.0,  999.0,  999.0,  999.0,  999.0,  999.0,  999.0,   -0.3,   -0.6,   -0.6,   -0.5,   -0.6,   -0.6,   -0.6,   -0.6,   -0.5,   -0.5,   -0.4,  999.0,   -0.0,  999.0,  999.0,  999.0,  999.0,  999.0,  999.0,  999.0,  999.0,  999.0,  999.0,  999.0,  999.0,  999.0,  999.0
2000/04/19 01:50,  999.0,  999.0,  999.0,  999.0,   -0.1,   -0.2,  999.0,   -0.2,   -0.6,   -0.2,   -0.0,  999.0,   -0.1,  999.0,  999.0,  999.0,  999.0,  999.0,    0.0,   -0.6,   -0.6,   -0.6,   -0.6,   -0.5,   -0.4,   -0.4,   -0.5,   -0.4,   -0.5,  999.0,  999.0,  999.0,  999.0,  999.0,  999.0,  999.0,  999.0,  999.0,  999.0,  999.0,  999.0,  999.0,  999.0,  999.0,  999.0,  999.0
2000/04/19 02:00,  999.0,  999.0,  999.0,  999.0,  999.0,  999.0,  999.0,  999.0,  999.0,    0.0,    0.0,  999.0,  999.0,  999.0,  999.0,  999.0,  999.0,    0.1,   -0.1,   -0.6,   -0.6,   -0.5,  999.0,   -0.1,  999.0,  999.0,  999.0,  999.0,  999.0,  999.0,   -0.0,  999.0,  999.0,  999.0,  999.0,  999.0,  999.0,  999.0,  999.0,  999.0,  999.0,  999.0,  999.0,  999.0,  999.0,  999.0
2000/04/19 02:10,  999.0,  999.0,  999.0,  999.0,  999.0,  999.0,  999.0,   -0.2,   -0.0,    0.2,    0.2,   -0.3,  999.0,  999.0,  999.0,  999.0,  999.0,    0.1,    0.0,   -0.4,   -0.4,   -0.3,   -0.3,   -0.4,   -0.5,   -0.5,   -0.5,   -0.5,   -0.6,   -0.4,   -0.3,   -0.3,   -0.5,   -0.5,   -0.4,  999.0,  999.0,  999.0,  999.0,  999.0,  999.0,  999.0,  999.0,  999.0,  999.0,  999.0
2000/04/19 02:20,   -0.1,    0.2,  999.0,  999.0,   -0.0,    0.1,  999.0,   -0.1,    0.0,    0.1,    0.1,  999.0,  999.0,  999.0,  999.0,  999.0,   -0.0,    0.0,    0.0,   -0.5,   -0.6,   -0.5,   -0.5,   -0.7,   -0.7,   -0.7,   -0.7,   -0.7,   -0.6,   -0.6,   -0.5,   -0.4,  999.0,  999.0,  999.0,  999.0,  999.0,  999.0,  999.0,  999.0,  999.0,  999.0,  999.0,  999.0,  999.0,  999.0
2000/04/19 02:30,  999.0,  999.0,    0.5,   -0.1,  999.0,  999.0,  999.0,    0.4,   -0.3,    0.1,    0.1,  999.0,  999.0,  999.0,  999.0,    0.0,    0.1,    0.1,    0.0,   -0.6,   -0.6,   -0.6,   -0.6,   -0.6,   -0.7,   -0.7,   -0.7,   -0.7,   -0.8,   -0.6,   -0.4,   -0.5,  999.0,  999.0,  999.0,  999.0,  999.0,  999.0,  999.0,  999.0,  999.0,  999.0,  999.0,  999.0,  999.0,  999.0
2000/04/19 02:40,   -1.8,   -0.4,  999.0,   -0.0,    0.1,    0.2,    0.5,    0.2,    0.3,    0.1,    0.3,  999.0,  999.0,  999.0,  999.0,   -0.0,    0.1,    0.0,    0.1,  999.0,   -0.5,   -0.5,   -0.5,   -0.4,   -0.5,   -0.6,   -0.6,   -0.6,   -0.6,   -0.6,   -0.6,  999.0,  999.0,   -0.4,  999.0,  999.0,   -0.6,  999.0,  999.0,  999.0,  999.0,  999.0,  999.0,  999.0,  999.0,  999.0
2000/04/19 02:50,  999.0,  999.0,  999.0,  999.0,  999.0,  999.0,  999.0,    0.1,    0.3,  999.0,    0.1,  999.0,  999.0,  999.0,   -0.0,  999.0,   -0.0,    0.0,   -0.2,   -0.5,   -0.5,   -0.5,   -0.6,   -0.4,   -0.5,   -0.5,   -0.6,   -0.7,   -0.7,   -0.7,   -0.6,   -0.6,   -0.5,  999.0,  999.0,  999.0,   -0.5,  999.0,  999.0,  999.0,  999.0,  999.0,  999.0,  999.0,  999.0,  999.0
2000/04/19 03:00,  999.0,  999.0,  999.0,    0.1,  999.0,  999.0,   -0.1,    0.2,    0.3,  999.0,    0.1,  999.0,  999.0,  999.0,  999.0,    0.0,   -0.1,   -0.2,   -0.5,   -0.4,   -0.3,   -0.3,   -0.2,   -0.2,   -0.3,   -0.5,   -0.6,   -0.7,   -0.6,   -0.6,   -0.5,   -0.5,  999.0,  999.0,  999.0,  999.0,  999.0,  999.0,  999.0,  999.0,  999.0,  999.0,  999.0,  999.0,  999.0,  999.0
2000/04/19 03:10,  999.0,  999.0,  999.0,  999.0,  999.0,  999.0,  999.0,    0.1,    0.3,    0.1,    0.2,    0.1,  999.0,   -0.2,   -0.1,   -0.1,   -0.1,   -0.4,   -0.6,   -0.5,   -0.4,   -0.4,   -0.4,   -0.5,   -0.5,   -0.6,   -0.7,   -0.7,  999.0,   -0.5,   -0.5,   -0.5,   -0.4,   -0.6,  999.0,  999.0,  999.0,  999.0,  999.0,  999.0,  999.0,  999.0,  999.0,  999.0,  999.0,  999.0
2000/04/19 03:20,  999.0,  999.0,  999.0,  999.0,   -0.1,    0.3,  999.0,    0.1,  999.0,  999.0,    0.1,    0.3,  999.0,   -0.1,   -0.2,   -0.2,   -0.2,   -0.5,   -0.6,   -0.7,   -0.5,   -0.4,   -0.6,   -0.4,  999.0,   -0.5,  999.0,   -0.4,   -0.5,   -0.6,   -0.6,   -0.6,   -0.5,  999.0,  999.0,  999.0,  999.0,  999.0,  999.0,  999.0,  999.0,  999.0,  999.0,  999.0,  999.0,  999.0
2000/04/19 03:30,  999.0,  999.0,  999.0,    0.4,   -0.3,    0.2,   -0.1,   -0.0,  999.0,    0.2,    0.0,  999.0,  999.0,  999.0,   -0.0,   -0.1,   -0.1,   -0.1,   -0.3,   -0.7,   -0.6,   -0.4,   -0.5,   -0.5,   -0.6,   -0.6,  999.0,   -0.6,   -0.7,   -0.6,   -0.5,   -0.6,   -0.5,  999.0,  999.0,  999.0,  999.0,  999.0,  999.0,  999.0,  999.0,  999.0,  999.0,  999.0,  999.0,  999.0
2000/04/19 03:40,   -0.0,    0.3,  999.0,   -0.0,  999.0,   -0.2,    0.1,    0.1,  999.0,    0.2,    0.1,   -0.1,  999.0,   -0.0,   -0.0,   -0.1,   -0.3,   -0.7,   -0.8,   -0.7,   -0.7,   -0.7,   -0.7,   -0.6,   -0.6,   -0.6,   -0.6,   -0.6,   -0.6,   -0.7,   -0.7,   -0.7,   -0.5,   -0.8,  999.0,  999.0,  999.0,  999.0,  999.0,  999.0,  999.0,  999.0,  999.0,  999.0,  999.0,  999.0
2000/04/19 03:50,    0.4,  999.0,   -0.1,   -0.2,    0.8,   -0.1,    0.3,  999.0,   -0.1,    0.2,    0.3,    0.0,   -0.2,   -0.1,   -0.0,   -0.2,   -0.2,   -0.2,   -0.3,   -0.3,   -0.4,   -0.4,   -0.5,   -0.6,   -0.8,   -0.8,   -0.8,   -0.7,   -0.7,   -0.7,   -0.7,   -0.6,   -0.7,   -0.5,  999.0,  999.0,  999.0,  999.0,  999.0,  999.0,  999.0,  999.0,  999.0,  999.0,  999.0,  999.0
2000/04/19 04:00,   -0.4,   -0.5,   -0.2,  999.0,    0.1,  999.0,    0.4,  999.0,    0.3,    0.4,    0.3,  999.0,  999.0,  999.0,    0.1,    0.0,    0.1,   -0.0,   -0.1,   -0.1,   -0.2,   -0.5,   -0.6,   -0.7,   -0.7,   -0.8,   -0.8,   -0.8,   -0.8,   -0.8,   -0.7,   -0.7,   -0.8,   -0.7,   -0.8,   -0.7,   -0.7,   -0.7,  999.0,  999.0,  999.0,  999.0,  999.0,  999.0,  999.0,  999.0
2000/04/19 04:10,  999.0,   -0.4,  999.0,  999.0,    0.5,  999.0,  999.0,  999.0,    0.4,    0.3,    0.2,  999.0,  999.0,  999.0,   -0.0,    0.0,   -0.1,   -0.0,    0.1,  999.0,    0.1,  999.0,   -0.3,   -0.6,   -0.6,   -0.7,   -0.7,   -0.8,   -0.8,   -0.8,   -0.8,   -0.8,   -0.8,   -0.8,   -0.7,   -0.6,   -0.6,  999.0,   -0.7,  999.0,  999.0,  999.0,  999.0,  999.0,  999.0,  999.0
2000/04/19 04:20,    0.1,    0.2,  999.0,    0.2,    0.4,    0.1,  999.0,  999.0,  999.0,    0.1,    0.2,  999.0,  999.0,  999.0,  999.0,   -0.0,    0.0,   -0.0,   -0.1,  999.0,  999.0,   -0.4,   -0.3,   -0.5,   -0.6,   -0.7,   -0.7,   -0.7,   -0.7,   -0.7,   -0.6,   -0.7,   -0.7,   -0.6,   -0.6,   -0.6,   -0.8,  999.0,  999.0,  999.0,  999.0,  999.0,  999.0,  999.0,  999.0,  999.0
2000/04/19 04:30,  999.0,    0.1,  999.0,  999.0,  999.0,  999.0,    0.2,    0.3,    0.2,  999.0,    0.2,  999.0,  999.0,  999.0,  999.0,    0.0,   -0.1,   -0.4,   -0.3,   -0.4,   -0.3,   -0.3,   -0.4,   -0.5,   -0.6,   -0.7,   -0.7,   -0.8,   -0.8,   -0.7,   -0.7,   -0.8,   -0.7,   -0.6,   -0.5,   -0.5,  999.0,  999.0,  999.0,  999.0,  999.0,  999.0,  999.0,  999.0,  999.0,  999.0
2000/04/19 04:40,  999.0,    0.1,    0.3,  999.0,    0.0,    0.2,  999.0,  999.0,  999.0,   -0.1,    0.2,    0.0,    0.1,  999.0,    0.1,   -0.1,    0.1,   -0.2,   -0.4,   -0.2,   -0.1,   -0.3,   -0.2,   -0.4,   -0.5,  999.0,   -0.5,   -0.5,   -0.5,   -0.5,   -0.6,   -0.6,   -0.6,   -0.6,   -0.5,   -0.5,  999.0,  999.0,  999.0,  999.0,  999.0,  999.0,  999.0,  999.0,  999.0,  999.0
2000/04/19 04:50,  999.0,   -0.2,  999.0,   -0.4,    0.1,    0.1,    0.2,  999.0,    0.3,    0.3,    0.2,    0.3,    0.2,  999.0,  999.0,    0.1,   -0.0,   -0.0,   -0.0,   -0.3,   -0.3,   -0.5,   -0.4,   -0.1,  999.0,  999.0,  999.0,  999.0,  999.0,   -0.3,   -0.3,   -0.3,   -0.3,   -0.5,   -0.4,   -0.3,   -0.3,   -0.2,  999.0,  999.0,  999.0,  999.0,  999.0,  999.0,  999.0,  999.0
2000/04/19 05:00,    0.3,  999.0,   -0.5,   -0.5,  999.0,    0.2,    0.3,    0.3,  999.0,    0.2,  999.0,    0.2,    0.1,   -0.0,  999.0,    0.0,   -0.1,   -0.3,   -0.4,   -0.5,   -0.5,   -0.4,   -0.4,   -0.4,   -0.3,  999.0,  999.0,  999.0,  999.0,   -0.3,   -0.3,   -0.4,   -0.5,   -0.4,   -0.4,   -0.3,   -0.2,  999.0,  999.0,  999.0,  999.0,  999.0,  999.0,  999.0,  999.0,  999.0
2000/04/19 05:10,  999.0,    0.2,  999.0,  999.0,    0.2,    0.1,    0.4,    0.3,    0.2,    0.3,  999.0,  999.0,  999.0,  999.0,  999.0,    0.1,   -0.3,   -0.4,   -0.4,   -0.5,   -0.4,   -0.3,   -0.1,   -0.2,  999.0,  999.0,  999.0,  999.0,  999.0,  999.0,  999.0,   -0.4,   -0.5,   -0.6,   -0.6,   -0.5,   -0.5,   -0.6,  999.0,  999.0,  999.0,  999.0,  999.0,  999.0,  999.0,  999.0
2000/04/19 05:20,    0.3,    0.2,    0.3,  999.0,  999.0,   -0.1,  999.0,    0.0,    0.1,  999.0,    0.0,  999.0,    0.1,   -0.0,  999.0,   -0.3,   -0.8,   -0.8,   -0.8,   -0.8,   -0.8,   -0.7,   -0.6,   -0.6,   -0.5,  999.0,  999.0,  999.0,  999.0,  999.0,  999.0,   -0.5,   -0.5,   -0.5,   -0.7,  999.0,   -0.4,   -0.5,  999.0,  999.0,  999.0,  999.0,  999.0,  999.0,  999.0,  999.0
2000/04/19 05:30,    0.3,  999.0,  999.0,    0.2,  999.0,    0.3,    0.3,  999.0,  999.0,    0.3,    0.2,    0.1,    0.1,   -0.0,  999.0,   -0.7,   -0.9,   -0.9,   -0.9,   -0.9,   -0.9,   -0.8,   -0.5,   -0.4,   -0.5,  999.0,   -0.2,   -0.3,   -0.5,   -0.4,   -0.5,   -0.6,   -0.7,   -0.6,   -0.6,   -0.7,   -0.5,  999.0,  999.0,  999.0,  999.0,  999.0,  999.0,  999.0,  999.0,  999.0
2000/04/19 05:40,  999.0,  999.0,    0.1,   -0.2,   -0.0,    0.1,  999.0,    0.1,    0.2,    0.1,  999.0,  999.0,  999.0,  999.0,  999.0,   -0.2,   -0.7,   -0.7,   -0.7,   -0.8,   -0.8,   -0.8,   -0.6,   -0.7,   -0.6,  999.0,   -0.6,   -0.6,   -0.6,   -0.6,   -0.6,   -0.6,   -0.7,   -0.7,   -0.6,   -0.6,   -0.6,  999.0,  999.0,  999.0,  999.0,  999.0,  999.0,  999.0,  999.0,  999.0
2000/04/19 05:50,  999.0,  999.0,  999.0,  999.0,   -0.1,  999.0,  999.0,  999.0,  999.0,    0.1,    0.1,  999.0,  999.0,    0.0,  999.0,   -0.3,   -0.7,   -0.8,   -0.8,   -0.8,   -0.9,   -0.8,   -0.8,   -0.7,   -0.7,   -0.7,   -0.7,   -0.7,   -0.6,   -0.7,   -0.8,   -0.8,   -0.8,   -0.8,   -0.8,   -0.7,   -0.6,   -0.5,  999.0,  999.0,  999.0,  999.0,  999.0,  999.0,  999.0,  999.0
2000/04/19 06:00,  999.0,    0.3,    0.0,   -0.1,  999.0,    0.1,  999.0,  999.0,  999.0,   -0.1,  999.0,  999.0,  999.0,  999.0,  999.0,   -0.2,   -0.7,   -0.8,   -0.8,   -0.9,   -0.9,   -0.9,   -0.9,   -0.8,   -0.8,   -0.8,   -0.8,   -0.7,   -0.6,   -0.7,   -0.7,   -0.7,   -0.7,   -0.7,   -0.7,   -0.7,   -0.7,   -0.7,   -0.5,  999.0,  999.0,  999.0,  999.0,  999.0,  999.0,  999.0
2000/04/19 06:10,    0.4,    0.5,    0.1,   -0.2,    0.2,    0.3,  999.0,  999.0,  999.0,    0.0,  999.0,  999.0,  999.0,   -0.1,  999.0,   -0.6,   -0.9,   -0.9,   -0.9,   -0.8,   -0.8,   -0.8,   -0.8,   -0.8,   -0.9,   -0.8,   -0.8,   -0.8,   -0.8,   -0.7,   -0.7,   -0.7,   -0.7,   -0.7,   -0.7,   -0.8,   -0.5,  999.0,  999.0,  999.0,  999.0,  999.0,  999.0,  999.0,  999.0,  999.0
2000/04/19 06:20,    0.5,    0.6,  999.0,    0.0,    0.1,  999.0,  999.0,  999.0,  999.0,    0.1,  999.0,  999.0,  999.0,  999.0,   -0.3,   -0.9,   -0.8,   -0.8,   -0.8,   -0.8,   -0.8,   -0.8,   -0.8,   -0.8,   -0.8,   -0.8,   -0.8,   -0.7,   -0.8,   -0.7,   -0.7,   -0.7,   -0.8,   -0.8,   -0.7,   -0.7,   -0.4,  999.0,  999.0,  999.0,  999.0,  999.0,  999.0,  999.0,  999.0,  999.0
2000/04/19 06:30,    0.8,    0.8,    0.6,  999.0,    0.4,  999.0,  999.0,  999.0,  999.0,    0.2,    0.1,  999.0,  999.0,  999.0,    0.1,  999.0,  999.0,   -0.6,   -0.7,   -0.6,   -0.8,   -0.8,   -0.9,   -0.9,   -0.9,   -0.8,   -0.8,   -0.8,   -0.7,   -0.7,   -0.7,   -0.8,   -0.8,   -0.8,   -0.7,   -0.5,   -0.7,   -0.5,  999.0,  999.0,  999.0,  999.0,  999.0,  999.0,  999.0,  999.0
2000/04/19 06:40,    0.6,    0.6,    0.4,    0.0,    0.5,    0.6,    0.3,    0.2,    0.3,  999.0,  999.0,  999.0,  999.0,    0.1,  999.0,   -0.1,   -0.7,   -0.8,   -0.8,   -0.8,   -0.9,   -0.9,   -1.0,   -0.9,   -0.9,   -0.9,   -0.8,   -0.9,   -0.9,   -0.9,   -1.0,   -0.9,   -0.9,   -0.8,   -0.7,   -0.7,   -0.5,   -0.9,  999.0,  999.0,  999.0,  999.0,  999.0,  999.0,  999.0,  999.0
2000/04/19 06:50,    0.6,    0.4,    0.5,    0.3,    0.3,    0.4,    0.3,    0.2,    0.3,    0.3,  999.0,  999.0,    0.1,  999.0,   -0.1,   -0.2,   -0.5,   -0.5,   -0.6,   -0.6,   -0.8,   -0.9,   -1.0,   -1.0,   -1.0,   -1.0,   -1.0,   -1.0,   -1.0,   -1.0,   -1.0,   -0.9,   -0.9,   -0.8,   -0.7,   -0.7,   -0.6,   -0.6,  999.0,  999.0,  999.0,  999.0,  999.0,  999.0,  999.0,  999.0
2000/04/19 07:00,    0.4,    0.4,  999.0,    0.2,  999.0,    0.4,    0.3,    0.3,  999.0,   -0.4,   -0.1,   -0.0,   -0.2,   -0.1,    0.0,   -0.0,   -0.4,   -0.4,   -0.4,   -0.5,   -0.7,   -0.8,   -0.9,   -0.9,   -0.8,   -0.8,   -0.9,   -0.9,   -0.9,   -0.8,   -0.8,   -0.8,   -0.7,   -0.7,   -0.7,   -0.6,   -0.5,   -0.6,  999.0,  999.0,  999.0,  999.0,  999.0,  999.0,  999.0,  999.0
2000/04/19 07:10,    0.4,    0.4,  999.0,  999.0,    0.4,  999.0,    0.4,    0.3,    0.3,    0.2,    0.3,    0.1,  999.0,   -0.0,   -0.4,   -0.7,   -0.8,   -0.8,   -0.8,   -0.8,   -0.8,   -0.8,   -0.8,   -0.9,   -0.9,   -0.9,   -0.9,   -1.0,   -1.1,   -1.1,   -1.1,   -1.0,   -1.0,   -1.0,   -0.9,   -0.7,   -0.7,  999.0,  999.0,  999.0,  999.0,  999.0,  999.0,  999.0,  999.0,  999.0
2000/04/19 07:20,  999.0,    0.3,  999.0,    0.3,  999.0,    0.3,    0.3,    0.4,    0.1,    0.1,   -0.0,   -0.2,    0.0,   -0.4,   -0.9,   -1.1,   -1.0,   -1.0,   -0.9,   -0.9,   -0.9,   -0.9,   -0.9,   -0.9,   -1.0,   -1.0,   -1.0,   -1.0,   -1.0,   -1.1,   -1.1,   -1.1,   -1.0,   -1.0,   -1.0,   -0.9,   -0.9,  999.0,  999.0,  999.0,  999.0,  999.0,  999.0,  999.0,  999.0,  999.0
2000/04/19 07:30,  999.0,    0.3,    0.2,    0.2,    0.1,    0.2,   -0.2,    0.0,    0.0,  999.0,  999.0,   -0.8,   -0.9,   -1.0,   -1.0,   -0.9,   -0.8,   -0.8,   -0.7,   -0.6,   -0.6,   -0.7,   -0.6,   -0.7,   -0.7,   -0.7,   -0.7,   -0.8,   -0.9,   -0.8,   -0.9,   -0.9,   -0.9,   -0.9,   -0.9,   -0.7,   -0.7,  999.0,  999.0,  999.0,  999.0,  999.0,  999.0,  999.0,  999.0,  999.0
2000/04/19 07:40,    0.3,    0.3,  999.0,  999.0,  999.0,    0.3,   -0.5,   -0.8,   -0.9,   -1.0,   -1.0,   -1.0,   -0.9,   -0.8,   -0.6,   -0.7,   -0.7,   -0.7,   -0.6,   -0.7,   -0.7,   -0.8,   -0.9,   -0.8,   -0.8,   -0.7,   -0.8,   -0.8,   -0.8,   -0.7,   -0.6,   -0.5,   -0.6,   -0.6,   -0.6,   -0.5,   -0.4,  999.0,  999.0,  999.0,  999.0,  999.0,  999.0,  999.0,  999.0,  999.0
2000/04/19 07:50,   -2.2,   -2.2,   -2.5,   -2.1,   -2.6,   -2.2,   -1.9,   -1.8,   -1.7,   -1.6,   -1.6,   -1.4,   -1.3,   -1.2,   -0.8,   -0.7,   -1.1,   -1.1,   -1.0,   -1.0,   -1.2,   -1.1,   -1.2,   -0.9,   -0.8,   -0.7,   -0.8,   -0.7,   -0.7,   -0.6,   -0.6,   -0.6,   -0.5,   -0.5,   -0.4,   -0.4,   -0.3,  999.0,  999.0,  999.0,  999.0,  999.0,  999.0,  999.0,  999.0,  999.0
2000/04/19 08:00,  999.0,  999.0,  999.0,   -0.9,  999.0,  999.0,  999.0,   -1.9,   -1.8,   -2.0,   -1.5,   -1.2,   -1.1,   -0.8,   -0.7,   -1.2,   -1.3,   -1.5,   -1.4,   -1.3,   -1.4,   -1.4,   -1.3,   -1.2,   -1.0,   -0.9,   -0.9,   -1.0,   -1.0,   -0.9,   -0.8,   -0.8,   -0.7,   -0.7,   -0.6,   -0.5,   -0.4,   -0.6,  999.0,  999.0,  999.0,  999.0,  999.0,  999.0,  999.0,  999.0
2000/04/19 08:10,    0.1,  999.0,  999.0,  999.0,   -0.1,  999.0,  999.0,  999.0,  999.0,  999.0,  999.0,   -0.5,   -0.4,   -0.2,   -0.2,   -1.2,   -1.3,   -1.3,   -1.2,   -1.3,   -1.3,   -1.4,   -1.4,   -1.4,   -1.2,   -1.1,   -0.9,   -0.8,   -0.9,   -0.9,   -0.9,   -0.9,   -0.8,   -0.7,   -0.7,   -0.6,   -0.4,   -0.4,  999.0,  999.0,  999.0,  999.0,  999.0,  999.0,  999.0,  999.0
2000/04/19 08:20,    0.2,  999.0,  999.0,   -0.1,   -0.1,    0.0,    0.2,    0.1,    0.0,   -0.3,   -0.0,   -0.2,   -0.2,  999.0,   -0.6,   -1.0,   -1.3,   -1.3,   -1.3,   -1.4,   -1.4,   -1.3,   -1.3,   -1.3,   -1.3,   -1.1,   -1.1,   -1.0,   -1.2,   -1.2,   -1.1,   -1.1,   -1.0,   -0.9,   -0.8,   -0.8,   -0.7,   -0.6,  999.0,  999.0,  999.0,  999.0,  999.0,  999.0,  999.0,  999.0
2000/04/19 08:30,    0.5,  999.0,  999.0,  999.0,    0.0,    0.1,    0.1,    0.1,    0.1,   -0.1,    0.1,    0.0,    0.1,    0.1,   -0.5,   -0.9,   -1.1,   -1.2,   -1.1,   -1.1,   -1.2,   -1.2,   -1.3,   -1.3,   -1.3,   -1.3,   -1.2,   -1.1,   -1.1,   -1.0,   -1.0,   -1.0,   -1.0,   -0.9,   -0.8,   -0.7,   -0.7,   -0.7,   -0.6,  999.0,  999.0,  999.0,  999.0,  999.0,  999.0,  999.0
2000/04/19 08:40,    0.3,  999.0,    0.2,    0.2,    0.1,  999.0,    0.1,    0.2,    0.1,    0.1,   -0.1,   -0.1,   -0.4,    0.1,   -0.8,   -1.0,   -1.1,   -1.0,   -1.0,   -1.0,   -1.1,   -1.2,   -1.2,   -1.3,   -1.3,   -1.3,   -1.2,   -1.2,   -1.1,   -1.1,   -1.0,   -0.8,   -0.8,   -0.7,   -0.7,   -0.6,   -0.4,   -0.3,   -0.6,  999.0,  999.0,  999.0,  999.0,  999.0,  999.0,  999.0
2000/04/19 08:50,    0.2,  999.0,  999.0,   -0.1,  999.0,  999.0,  999.0,  999.0,   -0.6,   -0.9,   -0.9,   -0.9,   -0.7,   -1.1,   -1.2,   -1.0,   -1.0,   -0.9,   -0.9,   -1.0,   -1.0,   -1.1,   -1.1,   -1.0,   -1.0,   -0.8,   -0.8,   -0.7,   -0.5,   -0.6,   -0.6,   -0.5,   -0.6,   -0.5,   -0.5,   -0.5,   -0.4,   -0.5,   -0.4,   -0.4,  999.0,  999.0,   -0.4,  999.0,  999.0,  999.0
2000/04/19 09:00,    0.1,    0.1,  999.0,  999.0,   -0.1,   -0.1,   -0.5,   -1.0,   -1.1,   -1.1,   -1.3,   -1.4,   -1.4,   -1.3,   -1.3,   -1.1,   -1.1,   -1.0,   -1.0,   -0.9,   -0.9,   -0.9,   -0.8,   -0.7,   -0.7,   -0.7,   -0.6,   -0.5,   -0.5,   -0.4,   -0.3,   -0.4,   -0.4,   -0.4,   -0.4,   -0.6,   -0.6,   -0.6,   -0.6,   -0.6,   -0.5,   -0.5,   -0.5,  999.0,  999.0,  999.0
2000/04/19 09:10,    0.2,  999.0,  999.0,   -1.6,   -1.5,   -1.2,   -0.9,   -1.0,   -1.1,   -1.3,   -1.5,   -1.4,   -1.2,   -1.2,   -1.1,   -1.0,   -0.8,   -0.7,   -0.7,   -0.6,   -0.6,  999.0,  999.0,   -0.5,   -0.3,   -0.1,   -0.0,   -0.3,   -0.3,   -0.1,   -0.3,   -0.4,   -0.3,   -0.3,   -0.4,   -0.5,   -0.5,   -0.4,   -0.4,   -0.3,   -0.4,   -0.4,  999.0,  999.0,  999.0,  999.0
2000/04/19 09:20,   -0.1,    0.0,   -2.5,   -2.4,   -2.2,   -2.0,  999.0,   -0.9,  999.0,   -1.0,   -1.1,   -1.0,   -1.1,   -0.9,   -0.8,   -0.7,   -0.6,   -0.6,   -0.6,   -0.5,   -0.3,   -0.4,   -0.4,   -0.3,   -0.2,  999.0,  999.0,   -0.4,   -0.3,   -0.6,   -0.5,   -0.6,   -0.6,   -0.6,   -0.7,   -0.6,   -0.6,   -0.6,   -0.6,   -0.5,   -0.6,   -0.7,   -0.4,  999.0,  999.0,  999.0
2000/04/19 09:30,   -0.2,   -0.2,   -0.1,   -1.4,  999.0,  999.0,  999.0,  999.0,   -0.4,   -0.5,   -0.6,   -0.9,   -0.9,   -0.9,   -0.8,   -0.6,   -0.5,   -0.6,   -0.6,   -0.6,   -0.6,   -0.7,   -0.7,   -0.7,   -0.7,   -0.6,   -0.6,   -0.6,   -0.7,   -0.7,   -0.8,   -0.8,   -0.8,   -0.7,   -0.7,   -0.7,   -0.7,   -0.6,   -0.6,   -0.6,   -0.6,   -0.5,  999.0,  999.0,  999.0,  999.0
2000/04/19 09:40,   -0.1,   -0.1,    0.0,  999.0,  999.0,  999.0,  999.0,  999.0,    0.0,   -0.2,   -0.9,   -1.0,   -1.0,   -1.0,   -0.9,   -0.8,   -0.8,   -0.8,   -0.8,   -0.8,   -0.8,   -0.7,   -0.7,   -0.6,   -0.6,   -0.6,   -0.6,   -0.7,   -0.7,   -0.7,   -0.7,   -0.7,   -0.6,   -0.6,   -0.6,   -0.6,   -0.5,   -0.6,   -0.5,   -0.6,   -0.6,   -0.5,   -0.5,  999.0,  999.0,  999.0
2000/04/19 09:50,    0.6,   -0.5,   -0.2,   -0.2,   -0.2,   -0.2,   -0.3,   -0.3,   -0.5,  999.0,   -0.7,   -1.1,   -1.4,   -1.1,   -1.1,   -1.0,   -1.0,   -1.0,   -0.9,   -0.9,   -0.9,   -0.9,   -0.9,   -0.9,   -0.8,   -0.9,   -0.8,   -0.8,   -0.9,   -0.9,   -0.8,   -0.8,   -0.8,   -0.7,   -0.6,   -0.6,   -0.6,   -0.5,   -0.5,   -0.4,   -0.4,   -0.3,   -0.5,  999.0,  999.0,  999.0
2000/04/19 10:00,    0.1,   -0.4,   -0.4,   -0.4,   -0.2,   -0.2,   -0.1,  999.0,   -0.4,   -0.8,   -1.0,   -1.0,   -1.0,   -0.9,   -0.7,   -1.0,   -1.0,   -1.0,   -1.0,   -0.9,   -1.1,   -1.1,   -1.1,   -1.0,   -1.1,   -1.0,   -1.1,   -1.0,   -1.0,   -1.1,   -1.1,   -1.0,   -0.9,   -0.9,   -0.8,   -0.8,   -0.8,   -0.7,   -0.7,   -0.5,   -0.5,   -0.3,   -0.3,   -0.3,   -0.1,  999.0
2000/04/19 10:10,    0.9,    0.2,    0.2,   -0.3,   -0.0,   -0.0,  999.0,   -0.1,   -0.2,   -0.3,    0.2,    0.0,   -0.2,   -0.4,   -0.8,   -0.7,   -0.8,   -0.8,   -0.9,   -0.9,   -0.9,   -1.0,   -0.9,   -0.9,   -0.9,   -0.9,   -0.9,   -0.9,   -1.0,   -0.9,   -0.9,   -0.8,   -0.8,   -0.7,   -0.7,   -0.6,   -0.6,   -0.5,   -0.4,   -0.4,   -0.4,   -0.4,   -0.3,   -0.3,   -0.1,    0.3
2000/04/19 10:20,    0.1,    0.3,   -0.1,   -0.1,  999.0,   -0.1,   -0.2,   -0.1,   -0.0,   -0.1,   -0.0,   -0.1,    0.1,   -0.5,   -0.5,   -0.6,   -0.6,   -0.7,   -0.7,   -0.7,   -0.7,   -0.7,   -0.7,   -0.7,   -0.8,   -0.8,   -0.9,  999.0,   -0.9,   -0.9,   -0.9,   -0.9,   -0.8,   -0.7,   -0.6,   -0.6,   -0.5,   -0.5,   -0.6,   -0.4,   -0.3,   -0.4,   -0.4,   -0.3,   -0.3,   -0.2
2000/04/19 10:30,   -1.2,   -0.6,   -0.3,   -0.3,  999.0,  999.0,    0.1,    0.0,  999.0,  999.0,   -0.4,   -0.4,   -0.2,   -0.6,   -0.8,   -0.7,   -0.7,   -0.8,   -0.8,   -0.7,   -0.8,   -0.7,   -0.7,   -0.6,   -0.6,   -0.5,   -0.6,   -0.7,   -0.6,   -0.6,   -0.5,   -0.5,   -0.6,   -0.5,   -0.5,   -0.5,   -0.5,   -0.5,   -0.4,   -0.3,   -0.2,   -0.2,   -0.1,   -0.1,   -0.2,  999.0
2000/04/19 10:40,   -0.9,   -0.3,   -0.0,    0.0,  999.0,   -0.0,  999.0,   -0.0,  999.0,  999.0,   -0.4,   -0.5,   -0.2,   -0.2,   -0.7,   -0.7,   -0.6,   -0.7,   -0.7,   -0.7,   -0.6,   -0.6,   -0.6,   -0.4,   -0.2,  999.0,  999.0,  999.0,   -0.8,   -0.7,   -0.6,   -0.7,   -0.7,   -0.7,   -0.7,   -0.6,   -0.6,   -0.6,   -0.5,   -0.4,   -0.4,   -0.3,   -0.2,   -0.2,   -0.0,  999.0
2000/04/19 10:50,   -0.7,    0.1,    0.1,    0.4,  999.0,  999.0,   -0.2,  999.0,   -0.1,    0.1,   -0.5,   -0.0,   -0.1,   -0.0,   -0.4,   -0.5,   -0.6,   -0.8,   -0.7,   -0.8,   -0.7,   -0.5,   -0.4,   -0.4,  999.0,  999.0,   -0.6,  999.0,   -0.5,   -0.5,   -0.6,   -0.6,   -0.6,   -0.6,   -0.5,   -0.5,   -0.4,   -0.5,   -0.5,   -0.4,   -0.3,   -0.3,   -0.3,   -0.3,   -0.0,  999.0
2000/04/19 11:00,   -0.3,    0.0,   -0.9,   -0.7,   -0.3,   -0.1,   -0.1,   -0.4,  999.0,    0.2,    0.4,    0.1,    0.1,   -0.1,   -0.7,   -0.7,   -0.7,   -0.7,   -0.7,   -0.6,   -0.6,   -0.5,   -0.4,   -0.3,  999.0,  999.0,  999.0,  999.0,  999.0,  999.0,  999.0,  999.0,  999.0,  999.0,  999.0,  999.0,  999.0,  999.0,   -0.2,  999.0,  999.0,  999.0,  999.0,  999.0,  999.0,  999.0
2000/04/19 11:10,    0.3,    0.2,    0.5,    0.8,  999.0,    0.8,    0.4,    0.2,    0.2,    0.2,   -0.1,   -0.8,   -0.7,   -0.9,   -1.0,  999.0,   -0.8,   -0.8,   -0.7,   -0.7,   -0.6,   -0.6,   -0.6,   -0.6,   -0.6,  999.0,  999.0,  999.0,  999.0,  999.0,  999.0,  999.0,  999.0,  999.0,  999.0,  999.0,  999.0,  999.0,  999.0,  999.0,  999.0,  999.0,  999.0,  999.0,  999.0,  999.0
2000/04/19 11:20,   -0.2,   -0.3,   -0.0,    0.6,    0.8,    0.8,    0.7,    0.4,    0.4,   -0.5,   -0.9,   -1.0,   -1.1,   -1.1,   -1.1,  999.0,   -1.0,   -0.8,   -0.8,   -0.8,   -0.9,   -0.7,   -0.6,   -0.6,   -0.6,   -0.5,   -0.5,   -0.4,   -0.6,   -0.8,   -0.6,   -0.6,  999.0,  999.0,  999.0,  999.0,  999.0,  999.0,  999.0,  999.0,  999.0,  999.0,  999.0,  999.0,  999.0,  999.0
2000/04/19 11:30,   -0.6,   -1.4,   -1.0,    0.0,   -0.8,   -1.4,   -0.5,   -0.2,   -0.9,  999.0,   -1.1,   -1.1,   -1.1,   -1.2,  999.0,   -0.9,   -0.9,   -1.0,   -1.0,   -1.0,   -1.0,   -1.0,   -0.8,   -0.7,   -0.7,   -0.8,   -0.6,   -0.7,   -0.6,   -0.8,   -0.8,   -0.7,   -0.8,  999.0,   -0.2,  999.0,  999.0,  999.0,  999.0,  999.0,  999.0,  999.0,  999.0,  999.0,  999.0,  999.0
2000/04/19 11:40,   -3.4,   -3.6,   -3.5,   -3.5,   -3.0,   -2.7,   -0.8,   -0.8,   -0.9,  999.0,   -1.2,   -1.1,   -1.0,   -1.0,   -0.9,  999.0,   -0.8,  999.0,  999.0,  999.0,   -0.8,   -0.8,   -0.7,   -0.7,   -0.6,   -0.6,   -0.3,   -0.4,   -0.4,  999.0,  999.0,   -0.5,  999.0,  999.0,  999.0,  999.0,  999.0,  999.0,  999.0,  999.0,  999.0,  999.0,  999.0,  999.0,  999.0,  999.0
2000/04/19 11:50,   -5.2,   -4.7,   -4.5,   -4.4,   -4.7,   -3.2,   -1.1,   -0.8,   -1.0,   -1.0,   -0.9,   -1.0,   -1.2,   -1.1,   -1.0,  999.0,   -1.1,   -1.3,  999.0,  999.0,   -0.9,   -0.9,   -0.8,   -0.5,   -0.5,   -0.4,   -0.3,   -0.2,   -0.2,  999.0,  999.0,  999.0,  999.0,  999.0,  999.0,   -0.1,  999.0,  999.0,  999.0,  999.0,  999.0,  999.0,  999.0,  999.0,  999.0,  999.0
2000/04/19 12:00,   -4.5,   -4.5,   -4.6,   -4.6,   -4.6,   -3.0,   -1.7,   -1.4,   -1.3,   -1.1,   -1.3,   -1.2,   -1.2,   -1.1,   -1.1,   -1.1,  999.0,  999.0,  999.0,   -0.8,   -0.7,   -0.5,   -0.4,   -0.4,   -0.3,    0.1,   -0.1,   -0.3,    0.0,  999.0,  999.0,  999.0,  999.0,  999.0,  999.0,  999.0,  999.0,  999.0,  999.0,  999.0,  999.0,  999.0,  999.0,  999.0,  999.0,  999.0
2000/04/19 12:10,   -3.0,   -3.3,   -2.7,   -2.1,   -3.4,  999.0,   -1.2,   -1.0,   -1.2,   -1.4,   -1.3,   -1.1,   -1.1,   -1.2,   -1.1,   -1.1,  999.0,  999.0,   -0.7,   -0.6,   -0.6,   -0.3,   -0.3,   -0.4,   -0.2,  999.0,   -0.3,   -0.2,   -0.1,  999.0,  999.0,  999.0,  999.0,  999.0,  999.0,   -0.1,  999.0,  999.0,  999.0,  999.0,  999.0,  999.0,  999.0,  999.0,  999.0,  999.0
2000/04/19 12:20,   -3.2,   -2.9,   -1.6,    0.4,   -0.6,  999.0,    0.5,    0.5,    0.1,    0.1,    0.2,   -0.4,   -0.8,  999.0,  999.0,  999.0,  999.0,   -0.7,   -0.6,  999.0,   -0.7,   -0.5,   -0.4,   -0.5,   -0.3,   -0.5,   -0.2,   -0.3,   -0.1,   -0.3,  999.0,  999.0,  999.0,  999.0,  999.0,  999.0,  999.0,  999.0,  999.0,  999.0,  999.0,  999.0,  999.0,  999.0,  999.0,  999.0
2000/04/19 12:30,   -0.2,   -0.3,   -0.1,  999.0,    0.2,    0.3,    0.3,    0.4,    0.0,  999.0,   -0.1,   -0.6,   -1.0,   -1.1,   -0.9,   -0.8,   -0.9,   -0.7,   -0.7,   -0.6,   -0.6,   -0.6,   -0.4,   -0.3,   -0.4,   -0.2,   -0.2,   -0.1,  999.0,  999.0,  999.0,  999.0,  999.0,  999.0,  999.0,  999.0,  999.0,  999.0,  999.0,  999.0,  999.0,  999.0,  999.0,  999.0,  999.0,  999.0
2000/04/19 12:40,    0.1,   -0.0,    0.0,    0.2,    0.3,    0.1,    0.2,  999.0,    0.1,   -0.3,   -0.5,   -0.5,   -0.8,   -1.0,   -0.8,   -0.6,   -0.7,   -0.7,   -0.6,   -0.5,   -0.5,   -0.6,   -0.7,   -0.6,  999.0,  999.0,   -0.4,  999.0,  999.0,  999.0,  999.0,  999.0,  999.0,  999.0,  999.0,  999.0,  999.0,  999.0,  999.0,  999.0,  999.0,  999.0,  999.0,  999.0,  999.0,  999.0
2000/04/19 12:50,  999.0,  999.0,    0.1,    0.2,    0.1,   -0.1,   -0.0,   -0.0,   -0.1,   -0.8,   -0.9,   -0.8,   -1.0,   -1.0,   -1.0,   -0.8,   -0.8,   -0.8,   -0.6,   -0.5,   -0.2,   -0.2,  999.0,  999.0,  999.0,  999.0,  999.0,  999.0,  999.0,  999.0,  999.0,  999.0,  999.0,  999.0,  999.0,  999.0,  999.0,  999.0,  999.0,  999.0,  999.0,  999.0,  999.0,  999.0,  999.0,  999.0
2000/04/19 13:00,   -0.6,   -0.1,   -0.2,   -0.3,   -0.3,  999.0,   -0.6,   -0.8,   -1.0,   -1.3,   -1.3,   -1.2,   -1.2,   -1.2,   -1.1,   -1.0,   -0.9,   -0.8,   -0.7,   -0.7,   -0.5,   -0.4,  999.0,  999.0,  999.0,  999.0,  999.0,  999.0,  999.0,  999.0,  999.0,  999.0,  999.0,  999.0,    0.1,  999.0,  999.0,  999.0,  999.0,  999.0,  999.0,  999.0,  999.0,  999.0,  999.0,  999.0
2000/04/19 13:10,   -0.3,   -0.7,   -0.7,   -0.8,   -0.9,  999.0,  999.0,   -0.7,   -1.2,   -1.3,  999.0,   -1.4,   -1.3,   -1.3,   -1.2,  999.0,   -0.8,   -0.8,  999.0,  999.0,  999.0,  999.0,   -0.2,  999.0,  999.0,  999.0,  999.0,  999.0,  999.0,  999.0,  999.0,  999.0,  999.0,  999.0,  999.0,  999.0,  999.0,  999.0,  999.0,  999.0,  999.0,  999.0,  999.0,  999.0,  999.0,  999.0
2000/04/19 13:20,  999.0,   -3.0,   -2.9,   -3.9,   -3.9,   -3.3,   -1.2,   -0.8,   -1.5,   -1.3,   -1.4,   -1.4,   -1.4,   -1.2,   -0.9,  999.0,  999.0,   -0.7,   -0.7,   -0.6,   -0.6,   -0.5,   -0.4,  999.0,  999.0,  999.0,  999.0,  999.0,  999.0,   -0.1,  999.0,  999.0,  999.0,  999.0,  999.0,  999.0,  999.0,  999.0,  999.0,  999.0,  999.0,  999.0,  999.0,  999.0,  999.0,  999.0
2000/04/19 13:30,   -4.5,   -4.3,   -4.1,   -3.9,   -4.0,   -3.0,   -1.5,   -1.4,   -1.7,   -1.6,   -1.3,   -1.1,   -1.1,   -1.0,   -0.8,   -0.7,   -0.7,  999.0,   -0.3,   -0.2,   -0.3,   -0.3,   -0.2,   -0.1,  999.0,  999.0,  999.0,  999.0,  999.0,  999.0,  999.0,  999.0,  999.0,  999.0,  999.0,  999.0,  999.0,  999.0,  999.0,  999.0,  999.0,  999.0,  999.0,  999.0,  999.0,  999.0
2000/04/19 13:40,   -4.1,   -3.9,   -3.6,   -4.6,   -4.6,  999.0,   -1.4,   -1.5,   -1.4,   -1.3,   -1.6,   -1.4,   -1.0,   -0.9,   -0.6,  999.0,  999.0,   -0.4,   -0.1,   -0.1,  999.0,  999.0,  999.0,  999.0,  999.0,  999.0,  999.0,  999.0,  999.0,  999.0,  999.0,  999.0,  999.0,  999.0,  999.0,  999.0,  999.0,  999.0,  999.0,  999.0,  999.0,  999.0,  999.0,  999.0,  999.0,  999.0
2000/04/19 13:50,   -5.9,   -5.9,   -5.7,   -5.3,   -5.3,   -4.1,   -1.6,   -1.3,   -1.8,   -1.5,   -1.6,   -1.3,   -0.8,   -0.5,   -0.7,  999.0,  999.0,   -0.1,   -0.3,    0.0,    0.1,   -0.2,  999.0,  999.0,  999.0,  999.0,  999.0,  999.0,  999.0,  999.0,  999.0,  999.0,  999.0,  999.0,  999.0,  999.0,  999.0,  999.0,  999.0,  999.0,  999.0,  999.0,  999.0,  999.0,  999.0,  999.0
2000/04/19 14:00,   -5.3,   -5.6,   -5.7,   -5.3,   -5.2,   -4.5,   -1.7,   -1.6,   -1.5,   -1.5,   -1.4,   -1.3,   -1.2,   -1.0,  999.0,  999.0,   -1.0,   -0.8,   -0.7,  999.0,  999.0,   -0.6,  999.0,  999.0,  999.0,  999.0,  999.0,  999.0,  999.0,  999.0,  999.0,  999.0,  999.0,  999.0,  999.0,  999.0,  999.0,  999.0,  999.0,  999.0,  999.0,  999.0,  999.0,  999.0,  999.0,  999.0
2000/04/19 14:10,   -5.4,   -5.8,   -6.1,   -6.2,   -6.3,   -4.6,   -1.9,   -1.6,   -1.7,   -1.6,   -1.3,  999.0,  999.0,  999.0,   -1.2,   -1.3,   -1.1,   -0.9,   -0.6,  999.0,   -0.7,  999.0,  999.0,  999.0,  999.0,  999.0,  999.0,  999.0,  999.0,  999.0,  999.0,  999.0,  999.0,  999.0,  999.0,  999.0,  999.0,  999.0,  999.0,  999.0,  999.0,  999.0,  999.0,  999.0,  999.0,  999.0
2000/04/19 14:20,   -5.2,   -5.4,   -5.5,   -5.3,   -5.2,   -3.3,  999.0,  999.0,   -0.9,   -0.9,   -0.9,   -1.2,   -1.4,   -1.2,   -1.2,   -0.9,   -1.0,  999.0,  999.0,   -0.9,   -0.9,   -0.7,   -0.6,   -0.4,   -0.2,  999.0,  999.0,  999.0,  999.0,  999.0,  999.0,  999.0,  999.0,  999.0,  999.0,  999.0,  999.0,  999.0,  999.0,  999.0,  999.0,  999.0,  999.0,  999.0,  999.0,  999.0
2000/04/19 14:30,  999.0,   -3.6,   -3.0,   -2.9,   -2.7,   -2.6,   -1.7,   -1.4,   -1.1,   -1.2,   -1.1,   -1.1,   -1.1,  999.0,  999.0,  999.0,  999.0,   -0.9,   -0.9,   -0.9,   -0.8,   -0.9,   -0.9,   -0.8,   -0.6,   -0.5,  999.0,   -0.7,   -0.7,   -0.8,   -0.6,  999.0,  999.0,  999.0,  999.0,  999.0,  999.0,  999.0,  999.0,  999.0,  999.0,  999.0,  999.0,  999.0,  999.0,  999.0
2000/04/19 14:40,  999.0,   -4.2,   -4.2,   -3.9,   -4.2,   -3.0,   -1.8,   -1.6,   -1.3,   -1.4,   -1.1,   -1.1,   -1.0,  999.0,   -1.1,   -1.2,   -1.2,   -1.0,   -1.1,   -1.0,   -0.9,   -0.9,   -0.9,   -0.9,   -0.9,   -0.9,   -0.8,   -0.8,   -0.6,   -0.6,  999.0,  999.0,  999.0,  999.0,  999.0,  999.0,  999.0,  999.0,  999.0,  999.0,  999.0,  999.0,  999.0,  999.0,  999.0,  999.0
2000/04/19 14:50,   -4.5,   -3.7,   -3.2,   -3.2,   -3.5,   -2.8,   -1.5,   -0.8,   -1.0,   -1.2,   -1.4,   -0.9,   -1.0,   -1.0,   -1.0,   -0.9,   -0.7,   -1.0,   -1.0,   -0.9,  999.0,  999.0,   -0.9,   -1.0,   -0.7,   -0.8,   -0.7,   -0.7,   -0.6,   -0.6,  999.0,   -0.4,   -0.2,   -0.2,  999.0,  999.0,    0.0,  999.0,  999.0,  999.0,  999.0,  999.0,  999.0,  999.0,  999.0,  999.0
2000/04/19 15:00,   -4.6,   -4.4,   -4.1,   -3.7,   -3.6,   -2.8,   -1.8,   -1.5,   -1.4,   -1.2,   -1.3,  999.0,  999.0,  999.0,   -1.2,   -1.1,  999.0,   -1.2,   -1.1,   -1.1,   -1.0,   -1.0,   -0.9,   -0.9,   -0.9,   -0.8,   -0.8,   -0.7,   -0.6,   -0.6,   -0.6,   -0.6,   -0.4,   -0.4,  999.0,  999.0,   -0.1,  999.0,  999.0,  999.0,  999.0,  999.0,  999.0,  999.0,  999.0,  999.0
2000/04/19 15:10,   -4.1,   -4.6,   -4.5,   -4.5,   -4.2,   -3.6,  999.0,   -1.6,   -1.3,   -1.6,   -1.4,   -1.5,   -1.2,   -1.1,   -0.9,   -0.8,   -1.1,   -1.0,   -1.2,   -1.1,  999.0,   -0.8,   -0.9,   -0.9,   -0.8,   -0.8,   -0.9,   -0.9,   -0.7,   -0.7,   -0.6,   -0.6,   -0.5,   -0.4,   -0.3,   -0.2,    0.2,  999.0,  999.0,  999.0,  999.0,  999.0,  999.0,  999.0,  999.0,  999.0
2000/04/19 15:20,   -5.6,   -5.6,   -5.4,   -5.7,   -5.6,   -3.3,  999.0,  999.0,  999.0,   -2.0,   -1.6,   -1.7,   -1.6,   -0.9,  999.0,  999.0,   -1.2,   -1.1,   -1.1,   -1.2,   -1.2,   -1.1,   -1.1,   -1.1,   -1.1,   -1.1,   -1.0,   -0.9,   -0.8,   -0.8,   -0.7,  999.0,  999.0,  999.0,  999.0,  999.0,  999.0,  999.0,  999.0,  999.0,  999.0,  999.0,  999.0,  999.0,  999.0,  999.0
2000/04/19 15:30,   -5.1,   -4.5,   -4.3,   -4.8,   -5.0,   -2.5,   -1.5,  999.0,   -1.6,   -1.3,   -1.5,   -1.4,   -1.4,   -1.3,  999.0,   -1.4,   -1.1,   -1.2,   -1.1,   -1.1,   -1.0,   -0.9,   -0.9,   -0.9,   -1.0,   -1.0,   -0.8,   -0.8,   -0.7,   -0.6,   -0.4,   -0.3,   -0.3,  999.0,  999.0,  999.0,  999.0,  999.0,  999.0,  999.0,  999.0,  999.0,  999.0,  999.0,  999.0,  999.0
2000/04/19 15:40,   -6.8,   -6.5,   -6.4,   -5.9,   -6.2,   -3.3,   -2.1,   -1.7,  999.0,   -1.3,   -1.2,   -1.2,   -1.1,   -1.1,  999.0,   -1.1,   -1.2,  999.0,  999.0,   -0.7,   -0.7,   -0.8,   -0.8,   -0.7,   -0.6,   -0.6,   -0.5,   -0.4,   -0.4,   -0.5,   -0.2,  999.0,  999.0,  999.0,  999.0,  999.0,  999.0,  999.0,  999.0,  999.0,  999.0,  999.0,  999.0,  999.0,  999.0,  999.0
2000/04/19 15:50,   -7.0,   -7.1,   -7.1,   -6.8,   -6.6,   -3.6,  999.0,   -1.6,   -1.3,   -1.4,   -1.4,   -1.3,  999.0,  999.0,   -1.3,   -1.3,   -1.3,   -1.1,   -0.9,   -0.8,   -0.8,   -0.7,   -0.9,   -0.9,   -0.8,   -0.8,   -0.8,   -0.6,   -0.5,   -0.5,   -0.2,   -0.2,    0.0,  999.0,  999.0,  999.0,  999.0,  999.0,  999.0,  999.0,  999.0,  999.0,  999.0,  999.0,  999.0,  999.0
2000/04/19 16:00,   -6.7,   -6.9,   -7.0,   -6.9,   -6.2,  999.0,  999.0,   -1.7,  999.0,  999.0,  999.0,  999.0,  999.0,  999.0,  999.0,   -1.3,   -1.1,   -0.9,   -0.9,   -0.9,   -0.8,   -0.8,   -0.7,   -0.7,   -0.7,   -0.6,   -0.6,   -0.5,   -0.4,   -0.4,   -0.1,    0.1,  999.0,  999.0,  999.0,  999.0,  999.0,  999.0,  999.0,  999.0,  999.0,  999.0,  999.0,  999.0,  999.0,  999.0
2000/04/19 16:10,   -7.0,   -6.5,   -6.5,   -6.8,   -6.9,  999.0,   -1.6,   -1.3,   -1.6,   -1.3,   -1.2,   -1.3,  999.0,  999.0,  999.0,  999.0,   -1.0,  999.0,   -1.0,   -0.9,   -0.7,  999.0,   -0.4,   -0.4,   -0.3,   -0.3,   -0.2,   -0.1,   -0.4,    0.1,  999.0,  999.0,  999.0,  999.0,  999.0,  999.0,  999.0,  999.0,  999.0,  999.0,  999.0,  999.0,  999.0,  999.0,  999.0,  999.0
2000/04/19 16:20,   -5.4,   -5.3,   -5.6,   -5.9,   -5.4,   -2.2,  999.0,   -1.6,   -1.2,   -1.2,   -1.2,   -1.4,   -1.4,   -1.5,   -1.5,  999.0,  999.0,  999.0,   -1.2,   -1.1,   -0.9,   -0.7,   -0.9,   -0.7,   -0.6,   -0.5,   -0.5,   -0.1,   -0.0,    0.2,  999.0,  999.0,  999.0,  999.0,  999.0,  999.0,  999.0,  999.0,  999.0,  999.0,  999.0,  999.0,  999.0,  999.0,  999.0,  999.0
2000/04/19 16:30,   -4.5,   -4.6,   -4.3,   -4.4,   -4.4,   -1.7,  999.0,   -1.5,   -1.5,   -1.4,   -1.4,   -1.4,   -1.5,   -1.4,   -1.5,   -1.2,  999.0,  999.0,   -0.9,   -1.1,   -0.8,   -0.5,   -0.6,   -0.5,   -0.4,  999.0,  999.0,  999.0,  999.0,  999.0,   -0.0,    0.3,  999.0,  999.0,  999.0,  999.0,  999.0,  999.0,  999.0,  999.0,  999.0,  999.0,  999.0,  999.0,  999.0,  999.0
2000/04/19 16:40,   -3.9,   -4.0,   -4.2,   -4.3,   -4.3,  999.0,  999.0,  999.0,   -1.0,   -1.1,   -1.0,   -1.2,   -1.5,   -1.2,   -1.0,   -1.1,   -1.0,   -0.9,   -0.8,   -0.7,   -0.7,   -0.4,   -0.4,   -0.3,   -0.0,  999.0,  999.0,    0.1,  999.0,  999.0,  999.0,  999.0,  999.0,  999.0,  999.0,  999.0,  999.0,  999.0,  999.0,  999.0,  999.0,  999.0,  999.0,  999.0,  999.0,  999.0
2000/04/19 16:50,   -4.3,   -4.2,   -4.3,   -4.3,   -4.0,  999.0,  999.0,  999.0,   -0.9,   -1.0,   -0.8,   -0.8,   -0.9,   -0.9,  999.0,   -0.7,   -0.8,   -0.8,   -0.7,   -0.6,   -0.5,   -0.4,   -0.2,   -0.2,  999.0,  999.0,  999.0,    0.1,  999.0,  999.0,  999.0,  999.0,   -0.1,  999.0,  999.0,  999.0,  999.0,  999.0,  999.0,  999.0,  999.0,  999.0,  999.0,  999.0,  999.0,  999.0
2000/04/19 17:00,   -3.9,   -3.9,   -3.9,   -3.7,   -3.4,   -1.6,   -1.3,   -1.0,   -1.0,   -0.9,   -0.8,   -0.7,   -1.3,   -1.3,   -1.0,   -1.2,   -1.3,   -1.0,   -0.8,   -0.7,   -0.7,   -0.4,   -0.0,   -0.0,   -0.2,   -0.1,  999.0,    0.1,  999.0,  999.0,  999.0,  999.0,  999.0,  999.0,  999.0,  999.0,  999.0,  999.0,  999.0,  999.0,  999.0,  999.0,  999.0,  999.0,  999.0,  999.0
2000/04/19 17:10,   -3.0,   -2.0,   -2.1,   -1.6,   -1.4,   -1.1,   -0.6,   -0.3,   -0.0,   -0.1,   -0.2,   -0.3,   -0.4,   -0.6,   -0.5,   -0.5,   -0.7,   -1.0,   -1.0,   -0.9,   -0.7,   -0.4,   -0.1,   -0.1,   -0.0,   -0.1,   -0.0,   -0.0,  999.0,   -0.0,    0.0,   -0.1,   -0.0,  999.0,  999.0,  999.0,  999.0,  999.0,  999.0,  999.0,  999.0,  999.0,  999.0,  999.0,  999.0,  999.0
2000/04/19 17:20,   -0.3,   -0.4,   -0.3,   -0.3,   -0.1,  999.0,  999.0,    0.1,    0.4,    0.1,    0.0,   -0.1,   -0.7,   -0.9,   -1.1,   -0.9,   -0.8,   -0.7,   -0.9,   -1.1,   -0.8,   -0.5,   -0.3,   -0.3,   -0.2,   -0.1,   -0.2,   -0.1,  999.0,   -0.2,   -0.3,  999.0,  999.0,  999.0,  999.0,  999.0,  999.0,  999.0,  999.0,  999.0,  999.0,  999.0,  999.0,  999.0,  999.0,  999.0
2000/04/19 17:30,   -0.3,   -0.4,   -0.0,  999.0,  999.0,    0.2,    0.3,    0.4,    0.7,    0.6,    0.1,   -0.2,   -0.7,   -1.0,   -1.0,   -0.8,   -0.5,   -0.2,   -0.7,   -1.0,   -0.7,   -0.5,   -0.4,   -0.3,  999.0,   -0.6,   -0.4,  999.0,  999.0,  999.0,   -0.2,  999.0,  999.0,  999.0,  999.0,  999.0,  999.0,  999.0,  999.0,  999.0,  999.0,  999.0,  999.0,  999.0,  999.0,  999.0
2000/04/19 17:40,   -0.3,   -0.2,   -0.2,   -0.3,  999.0,  999.0,    0.1,    0.5,    0.5,    0.5,    0.1,   -0.9,   -0.9,   -0.9,   -0.7,   -0.6,   -0.7,   -0.6,   -0.6,   -0.4,   -0.3,   -0.1,   -0.7,   -0.4,   -0.6,   -0.6,   -0.6,   -0.5,   -0.7,   -1.1,   -1.0,   -0.7,  999.0,  999.0,  999.0,  999.0,  999.0,  999.0,  999.0,  999.0,  999.0,  999.0,  999.0,  999.0,  999.0,  999.0
2000/04/19 17:50,   -0.4,   -0.5,   -0.6,  999.0,  999.0,  999.0,  999.0,  999.0,    0.3,    0.4,  999.0,   -0.2,  999.0,  999.0,  999.0,   -1.0,   -1.0,   -1.0,   -1.0,   -0.9,   -0.7,   -0.5,   -0.2,   -0.2,   -0.5,   -0.6,   -0.7,   -0.7,   -0.7,   -0.8,   -0.8,   -0.3,    0.2,  999.0,  999.0,  999.0,  999.0,  999.0,  999.0,  999.0,  999.0,  999.0,  999.0,  999.0,  999.0,  999.0
2000/04/19 18:00,   -0.3,   -0.3,   -0.4,   -0.5,  999.0,  999.0,  999.0,    0.1,  999.0,    0.5,   -0.7,   -0.8,   -1.2,   -1.4,   -1.5,   -1.5,   -1.3,   -1.2,   -1.1,   -1.0,   -1.1,   -1.1,   -1.1,   -1.3,   -1.1,   -1.0,   -1.0,   -0.7,   -0.5,   -0.1,    0.5,  999.0,  999.0,  999.0,  999.0,  999.0,  999.0,  999.0,  999.0,  999.0,  999.0,  999.0,  999.0,  999.0,  999.0,  999.0
2000/04/19 18:10,   -0.3,   -0.3,   -0.5,   -0.2,  999.0,  999.0,  999.0,   -0.0,    0.1,   -0.4,  999.0,   -1.0,  999.0,  999.0,  999.0,   -1.3,   -1.3,   -1.2,   -1.0,   -1.0,   -0.9,   -0.8,   -0.9,   -0.8,   -0.7,   -0.7,   -0.5,   -0.2,    0.0,  999.0,  999.0,  999.0,  999.0,  999.0,  999.0,  999.0,  999.0,  999.0,  999.0,  999.0,  999.0,  999.0,  999.0,  999.0,  999.0,  999.0
2000/04/19 18:20,  999.0,  999.0,   -0.0,   -0.1,   -0.3,  999.0,    0.0,    0.1,    0.2,    0.3,   -0.1,   -0.4,   -0.9,   -1.1,   -1.1,   -1.1,   -1.0,   -0.9,   -0.8,   -0.8,   -0.7,   -0.6,   -0.8,   -0.7,   -0.6,   -0.5,   -0.3,   -0.2,  999.0,  999.0,  999.0,  999.0,  999.0,  999.0,  999.0,   -0.1,  999.0,  999.0,  999.0,  999.0,  999.0,  999.0,  999.0,  999.0,  999.0,  999.0
2000/04/19 18:30,  999.0,  999.0,  999.0,  999.0,   -0.0,    0.1,  999.0,    0.1,  999.0,   -0.1,   -0.6,   -0.8,  999.0,   -1.0,   -1.2,   -1.2,   -1.1,   -0.9,   -0.8,   -0.8,   -0.7,   -0.6,   -0.4,   -0.0,    0.1,    0.0,   -0.0,   -0.1,  999.0,  999.0,  999.0,  999.0,  999.0,  999.0,  999.0,  999.0,  999.0,  999.0,  999.0,  999.0,  999.0,  999.0,  999.0,  999.0,  999.0,  999.0
2000/04/19 18:40,   -3.8,   -3.5,   -3.2,   -3.4,   -2.2,   -2.3,   -1.1,    0.0,  999.0,   -0.5,   -0.7,  999.0,  999.0,   -1.3,   -1.2,  999.0,   -1.2,   -1.1,   -1.0,   -1.0,   -0.9,   -0.8,   -0.6,   -0.2,    0.0,    0.1,    0.1,    0.3,  999.0,  999.0,  999.0,  999.0,  999.0,  999.0,  999.0,   -0.4,  999.0,  999.0,  999.0,  999.0,  999.0,  999.0,  999.0,  999.0,  999.0,  999.0
2000/04/19 18:50,   -3.8,   -3.6,   -3.7,   -3.5,   -3.2,   -2.9,   -1.1,   -0.0,    0.2,   -0.1,   -1.1,  999.0,  999.0,  999.0,  999.0,  999.0,  999.0,  999.0,  999.0,   -0.9,   -0.7,   -0.6,   -0.5,   -0.2,    0.2,    0.1,  999.0,  999.0,    0.1,   -0.1,   -0.1,   -0.5,   -0.6,   -0.4,   -0.4,   -0.4,   -0.5,   -0.2,  999.0,  999.0,  999.0,  999.0,  999.0,  999.0,  999.0,  999.0
2000/04/19 19:00,  999.0,  999.0,  999.0,  999.0,  999.0,  999.0,    0.1,    0.2,    0.4,    0.1,   -0.1,   -0.5,   -0.5,   -0.9,   -1.0,   -0.8,   -0.5,   -0.2,   -0.2,   -0.4,   -0.2,   -0.0,    0.0,    0.1,    0.2,    0.0,  999.0,    0.3,  999.0,   -0.5,   -0.7,   -0.7,   -0.6,   -0.6,   -0.5,   -0.4,   -0.4,   -0.2,  999.0,  999.0,  999.0,  999.0,  999.0,  999.0,  999.0,  999.0
2000/04/19 19:10,   -0.3,   -0.2,  999.0,   -0.2,   -0.2,   -0.2,   -0.2,    0.1,    0.2,    0.3,   -0.7,   -1.0,   -1.7,   -1.7,   -1.5,   -1.3,   -2.4,   -1.7,   -1.4,   -1.0,   -0.8,   -0.6,   -0.4,   -0.1,    0.2,    0.4,    0.3,   -0.1,   -0.7,   -0.7,   -0.7,   -0.7,   -0.6,   -0.6,   -0.6,  999.0,   -0.2,  999.0,  999.0,  999.0,  999.0,  999.0,  999.0,  999.0,  999.0,  999.0
2000/04/19 19:20,   -5.3,   -5.3,   -4.4,   -4.1,   -3.3,   -3.6,   -2.4,   -1.8,   -1.3,   -1.4,   -1.5,   -1.8,   -2.0,   -2.3,   -2.4,   -2.4,   -2.4,   -2.3,   -1.9,   -1.5,   -0.9,   -0.4,   -0.2,   -0.1,    0.2,    0.2,    0.2,   -0.1,   -0.3,   -0.5,   -0.4,   -0.2,   -0.1,  999.0,  999.0,   -0.2,  999.0,  999.0,  999.0,  999.0,  999.0,  999.0,  999.0,  999.0,  999.0,  999.0
2000/04/19 19:30,   -4.0,   -3.9,   -4.0,   -3.9,   -3.8,   -3.8,   -3.3,   -1.9,   -1.5,   -1.3,   -1.2,   -1.4,   -1.7,   -1.7,   -1.7,   -1.7,   -1.6,   -1.4,   -1.1,   -0.8,   -0.5,   -0.3,   -0.0,    0.3,    0.3,    0.5,    0.5,    0.1,   -0.1,   -0.2,   -0.3,   -0.3,   -0.4,   -0.3,   -0.3,   -0.3,   -0.3,   -0.2,  999.0,  999.0,  999.0,  999.0,  999.0,  999.0,  999.0,  999.0
2000/04/19 19:40,   -5.1,   -5.2,   -5.4,   -5.4,   -5.4,   -5.1,  999.0,  999.0,   -1.6,   -1.3,   -1.3,   -1.3,   -1.3,   -1.5,   -1.5,   -1.5,  999.0,   -1.4,   -1.3,   -0.9,   -0.8,   -0.7,   -0.5,   -0.4,   -0.4,   -0.5,   -0.6,   -0.7,   -0.8,   -0.6,   -0.4,   -0.3,   -0.2,   -0.1,   -0.2,   -0.4,   -0.2,   -0.3,   -0.2,  999.0,  999.0,  999.0,  999.0,  999.0,  999.0,  999.0
2000/04/19 19:50,   -5.5,   -5.8,   -5.9,   -5.9,   -5.9,   -5.6,   -4.3,  999.0,   -1.7,   -1.5,   -1.3,   -1.5,  999.0,  999.0,   -1.4,   -1.2,   -1.2,   -1.2,   -1.0,   -0.8,   -0.6,   -0.5,   -0.6,   -0.6,   -0.6,   -0.8,   -0.8,   -0.9,   -0.8,   -0.6,   -0.4,   -0.4,   -0.4,   -0.2,   -0.2,   -0.2,   -0.1,   -0.2,    0.1,  999.0,  999.0,  999.0,  999.0,  999.0,  999.0,  999.0
2000/04/19 20:00,   -5.1,   -5.0,   -4.9,   -4.8,   -4.8,   -4.6,   -3.9,  999.0,   -1.5,   -1.2,   -1.0,   -1.0,   -0.9,   -0.9,   -0.9,   -1.0,   -1.0,   -1.0,  999.0,   -0.8,   -0.7,   -0.7,   -0.7,   -0.7,   -0.6,   -0.5,   -0.5,   -0.5,   -0.3,   -0.3,   -0.3,   -0.2,   -0.3,   -0.3,   -0.4,   -0.4,   -0.2,   -0.2,   -0.2,    0.0,   -0.0,  999.0,  999.0,  999.0,  999.0,  999.0
2000/04/19 20:10,   -5.4,   -5.6,   -5.8,   -5.6,   -5.6,   -5.5,   -3.8,   -2.2,   -1.7,   -1.5,   -1.4,   -1.2,   -1.1,   -1.1,  999.0,  999.0,   -1.1,   -1.0,   -0.9,   -0.8,   -0.6,   -0.6,   -0.6,   -0.7,   -0.6,   -0.6,   -0.6,   -0.7,   -0.6,   -0.5,   -0.5,   -0.5,   -0.6,   -0.6,   -0.6,   -0.4,   -0.3,   -0.5,   -0.7,   -0.7,   -0.9,  999.0,  999.0,  999.0,  999.0,  999.0
2000/04/19 20:20,   -6.1,   -6.6,   -6.5,   -6.5,   -6.3,   -6.1,   -5.0,  999.0,  999.0,  999.0,   -1.2,   -0.9,   -0.9,   -1.0,   -1.0,  999.0,  999.0,  999.0,   -0.9,   -0.8,   -0.8,   -0.8,   -0.7,   -0.9,   -0.9,   -0.9,   -0.9,   -0.9,   -0.9,   -0.8,   -0.8,   -0.8,   -0.7,   -0.5,   -0.3,   -0.3,   -0.5,   -0.5,   -0.6,   -0.5,   -0.5,  999.0,  999.0,  999.0,  999.0,  999.0
2000/04/19 20:30,   -6.0,   -6.2,   -6.2,   -6.3,   -6.3,   -6.2,   -5.9,  999.0,  999.0,   -1.4,   -1.3,   -1.2,   -1.1,   -1.0,   -1.0,   -0.9,   -0.9,   -0.8,   -0.8,   -0.9,   -1.0,   -0.9,   -1.0,   -1.0,   -0.7,   -0.8,   -0.7,   -0.7,   -0.8,   -0.7,   -0.7,   -0.6,   -0.5,   -0.4,   -0.5,   -0.3,   -0.4,   -0.2,   -0.2,  999.0,  999.0,  999.0,  999.0,  999.0,  999.0,  999.0
2000/04/19 20:40,   -6.4,   -6.4,   -6.5,   -6.4,   -6.4,   -6.4,   -6.0,  999.0,   -1.7,   -1.3,   -1.2,   -0.9,   -0.9,   -0.9,   -0.9,  999.0,  999.0,   -0.7,   -0.7,   -0.7,   -0.6,   -0.7,   -0.6,   -0.6,   -0.6,   -0.6,   -0.6,   -0.6,   -0.5,   -0.6,   -0.3,   -0.2,   -0.2,   -0.3,   -0.3,   -0.2,   -0.1,  999.0,  999.0,  999.0,  999.0,  999.0,  999.0,  999.0,  999.0,  999.0
2000/04/19 20:50,   -7.7,   -7.9,   -8.0,   -8.1,   -8.3,   -8.2,   -6.3,   -3.3,   -2.0,   -1.6,   -1.4,  999.0,  999.0,   -1.1,  999.0,   -1.1,  999.0,  999.0,   -0.8,   -0.8,   -0.7,   -0.5,   -0.4,   -0.5,   -0.6,   -0.6,   -0.5,   -0.5,  999.0,  999.0,   -0.5,   -0.4,   -0.4,   -0.4,   -0.5,   -0.2,   -0.1,    0.1,  999.0,  999.0,  999.0,  999.0,  999.0,  999.0,  999.0,  999.0
2000/04/19 21:00,   -8.0,   -8.0,   -7.9,   -8.0,   -8.1,   -7.8,   -6.6,  999.0,  999.0,   -1.7,   -1.5,   -1.4,  999.0,  999.0,   -1.3,  999.0,   -1.1,   -1.0,   -0.8,   -0.7,   -0.5,   -0.5,   -0.5,   -0.6,   -0.5,   -0.5,   -0.5,   -0.7,   -0.7,   -0.6,   -0.6,   -0.6,   -0.4,  999.0,  999.0,   -0.2,   -0.1,  999.0,  999.0,  999.0,  999.0,  999.0,  999.0,  999.0,  999.0,  999.0
2000/04/19 21:10,   -3.9,   -3.9,   -3.9,   -4.9,   -4.5,   -4.5,   -4.5,   -2.8,  999.0,   -1.0,   -1.4,   -1.5,   -1.6,   -1.6,   -1.5,   -1.3,   -1.3,   -1.2,   -1.0,   -0.8,   -0.4,   -0.2,   -0.7,   -0.4,   -0.8,   -0.4,   -0.5,   -0.6,   -0.6,   -0.4,   -0.2,  999.0,  999.0,  999.0,   -0.2,  999.0,  999.0,  999.0,  999.0,  999.0,  999.0,  999.0,  999.0,  999.0,  999.0,  999.0
2000/04/19 21:20,   -2.3,   -1.7,  999.0,   -2.7,   -3.4,   -3.5,   -1.1,   -2.2,   -1.7,   -1.3,   -1.1,   -0.7,   -0.8,   -0.8,   -0.9,   -1.2,   -1.5,   -1.4,   -1.3,   -1.0,   -0.8,   -0.9,   -0.6,   -0.5,   -0.4,  999.0,  999.0,  999.0,    0.2,   -0.1,    0.1,   -0.1,    0.2,   -0.2,    0.1,    0.3,  999.0,  999.0,  999.0,  999.0,  999.0,  999.0,  999.0,  999.0,  999.0,  999.0
2000/04/19 21:30,   -0.2,  999.0,   -0.2,  999.0,   -0.2,  999.0,  999.0,    0.5,   -0.0,    0.0,    0.5,   -0.0,   -0.5,   -0.6,   -0.4,   -0.4,   -0.2,   -0.2,   -0.0,   -0.4,   -0.4,   -0.4,   -0.2,   -0.0,    0.1,    0.2,    0.1,   -0.1,  999.0,   -0.1,   -0.3,   -0.1,  999.0,    0.1,  999.0,  999.0,  999.0,  999.0,  999.0,  999.0,  999.0,  999.0,  999.0,  999.0,  999.0,  999.0
2000/04/19 21:40,  999.0,   -0.0,    0.0,  999.0,  999.0,  999.0,  999.0,    0.4,    0.5,    0.4,    0.4,    0.3,   -0.1,   -0.0,   -0.2,    0.1,    0.1,   -0.0,    0.1,   -0.3,  999.0,   -0.3,   -0.2,    0.1,  999.0,    0.1,    0.1,  999.0,  999.0,  999.0,  999.0,  999.0,  999.0,  999.0,   -0.2,  999.0,  999.0,  999.0,  999.0,  999.0,  999.0,  999.0,  999.0,  999.0,  999.0,  999.0
2000/04/19 21:50,   -0.3,   -0.3,   -0.2,   -0.3,  999.0,   -0.6,   -0.6,    0.1,  999.0,   -0.4,   -0.8,   -0.8,   -0.9,   -0.5,    0.0,    0.1,   -0.0,    0.0,   -0.0,   -0.2,    0.1,    0.0,    0.1,    0.1,    0.1,  999.0,  999.0,    0.2,  999.0,  999.0,  999.0,   -0.4,   -0.5,   -0.3,   -0.3,   -0.4,  999.0,  999.0,  999.0,  999.0,  999.0,  999.0,  999.0,  999.0,  999.0,  999.0
2000/04/19 22:00,   -1.9,  999.0,  999.0,   -5.5,   -6.1,   -4.2,  999.0,   -2.7,   -1.7,   -1.6,   -1.6,   -1.5,   -1.8,   -1.5,   -1.3,   -1.4,   -1.1,   -0.9,   -0.7,   -0.3,   -0.1,   -0.1,  999.0,   -0.4,  999.0,  999.0,   -0.2,   -0.2,  999.0,   -0.9,   -0.6,   -0.6,   -0.6,   -0.3,   -0.3,   -0.2,  999.0,  999.0,  999.0,  999.0,  999.0,  999.0,  999.0,  999.0,  999.0,  999.0
2000/04/19 22:10,   -5.7,   -4.5,   -7.4,   -6.4,   -7.4,   -5.9,   -5.2,   -2.9,   -1.8,   -1.4,   -1.6,   -1.3,   -1.0,   -0.7,   -0.3,   -0.3,   -0.3,   -0.2,   -0.2,    0.2,   -0.0,    0.2,  999.0,    0.2,   -0.1,   -0.3,   -0.1,   -0.2,   -0.4,  999.0,   -0.5,   -0.3,   -0.4,   -0.2,   -0.1,   -0.2,   -0.2,  999.0,  999.0,  999.0,  999.0,  999.0,  999.0,  999.0,  999.0,  999.0
2000/04/19 22:20,   -2.6,   -2.9,   -2.3,   -3.0,  999.0,   -2.8,   -3.2,   -3.1,   -2.2,   -1.3,   -1.7,   -1.5,   -1.8,   -1.7,   -1.5,   -1.0,   -0.4,    0.1,    0.3,    0.4,    0.2,    0.1,    0.2,    0.0,   -0.5,   -0.6,   -0.6,  999.0,   -0.6,   -0.6,   -0.5,   -0.3,   -0.2,   -0.2,   -0.2,   -0.2,   -0.1,  999.0,  999.0,  999.0,  999.0,  999.0,  999.0,  999.0,  999.0,  999.0
2000/04/19 22:30,  999.0,   -2.7,   -3.5,   -3.3,   -3.4,   -4.6,   -3.7,   -4.3,   -2.0,   -1.5,   -1.3,   -1.2,   -1.0,   -1.0,   -1.0,   -0.7,   -0.4,   -0.3,   -0.4,   -0.6,   -0.8,   -0.8,   -0.5,   -0.6,   -0.8,   -0.8,   -0.8,   -0.7,   -0.5,   -0.5,   -0.8,   -0.6,   -0.4,   -0.3,   -0.2,   -0.0,  999.0,  999.0,  999.0,  999.0,  999.0,  999.0,  999.0,  999.0,  999.0,  999.0
2000/04/19 22:40,   -5.9,   -5.4,   -5.1,   -4.6,   -4.5,   -5.2,   -5.2,   -4.0,   -2.6,   -1.9,   -1.8,   -1.6,   -1.4,   -1.1,   -1.1,   -1.1,   -1.3,   -1.1,   -1.1,   -0.9,   -0.8,   -0.8,   -1.0,   -1.0,   -1.1,   -0.9,   -1.1,   -1.0,   -0.7,   -0.7,   -0.6,  999.0,  999.0,   -0.5,  999.0,   -0.1,  999.0,  999.0,  999.0,   -0.2,  999.0,  999.0,  999.0,  999.0,  999.0,  999.0
2000/04/19 22:50,   -5.9,   -5.8,   -6.2,   -6.0,   -5.8,   -5.6,   -5.4,   -4.7,   -2.5,   -1.7,   -1.2,   -0.9,   -0.8,   -0.9,   -1.0,   -0.9,   -0.8,   -0.5,   -0.6,   -0.6,   -0.5,   -0.5,   -0.6,   -0.6,   -0.7,  999.0,  999.0,  999.0,  999.0,  999.0,   -0.4,   -0.5,   -0.4,   -0.4,   -0.2,    0.0,   -0.0,  999.0,  999.0,   -0.1,  999.0,  999.0,  999.0,  999.0,  999.0,  999.0
2000/04/19 23:00,   -5.4,   -5.5,   -5.5,   -5.5,   -5.3,   -5.4,   -5.3,   -4.2,   -2.0,   -1.3,   -1.0,   -1.0,   -1.1,   -1.3,   -1.4,   -1.1,   -1.0,   -0.7,   -0.7,   -0.7,   -0.5,   -0.4,   -0.5,   -0.4,   -0.5,   -0.5,   -0.7,   -0.5,   -0.5,   -0.5,   -0.3,   -0.3,   -0.2,   -0.1,    0.1,    0.4,  999.0,  999.0,  999.0,  999.0,  999.0,  999.0,  999.0,  999.0,  999.0,  999.0
2000/04/19 23:10,   -6.3,   -6.6,   -6.6,   -6.8,   -6.7,   -6.6,   -6.1,   -4.3,   -1.9,   -1.2,   -1.0,   -0.8,   -0.9,   -1.1,   -1.3,   -1.2,   -1.0,   -1.0,   -0.9,   -0.8,   -0.6,   -0.5,   -0.7,   -0.7,   -0.7,   -0.7,   -0.8,   -0.8,   -0.7,   -0.5,   -0.6,   -0.4,    0.0,  999.0,  999.0,  999.0,  999.0,  999.0,  999.0,  999.0,  999.0,  999.0,  999.0,  999.0,  999.0,  999.0
2000/04/19 23:20,   -7.0,   -7.1,   -7.2,   -7.3,   -7.3,   -7.3,   -7.2,   -4.5,   -2.2,   -1.5,   -1.2,   -1.0,   -0.9,   -0.8,   -0.8,   -0.7,   -0.6,   -0.7,   -0.7,   -0.8,   -0.7,   -0.8,   -0.8,   -0.8,   -0.8,   -0.8,   -0.8,   -0.7,   -0.6,   -0.6,   -0.6,   -0.6,   -0.6,   -0.4,  999.0,  999.0,  999.0,  999.0,  999.0,  999.0,  999.0,  999.0,  999.0,  999.0,  999.0,  999.0
2000/04/19 23:30,   -6.9,   -7.1,   -7.2,   -7.4,   -7.4,   -7.4,   -6.6,   -4.1,   -2.1,   -1.6,   -1.3,   -1.3,  999.0,  999.0,   -1.1,  999.0,   -0.9,   -0.8,   -0.6,   -0.6,   -0.4,   -0.4,   -0.6,   -0.7,   -0.7,   -0.6,   -0.7,   -0.8,   -0.5,   -0.4,   -0.4,   -0.4,   -0.3,   -0.4,   -0.3,   -0.5,   -0.2,  999.0,  999.0,  999.0,  999.0,  999.0,  999.0,  999.0,  999.0,  999.0
2000/04/19 23:40,   -8.3,   -8.4,   -8.4,   -8.4,   -8.4,   -8.1,   -6.3,   -3.7,   -2.5,   -1.9,   -1.5,   -1.1,   -1.1,   -1.0,   -1.0,   -0.9,   -0.9,   -1.3,   -1.1,   -0.6,   -0.9,   -0.8,   -0.7,   -0.6,   -0.7,   -0.6,   -0.3,    0.1,    0.4,    0.5,    0.6,    0.6,    0.6,    0.6,    0.6,    0.0,   -0.2,   -0.1,   -0.1,   -0.2,  999.0,  999.0,  999.0,  999.0,  999.0,  999.0
2000/04/19 23:50,   -7.5,   -7.8,   -7.9,   -7.6,   -7.5,   -7.4,   -6.2,   -3.8,   -2.4,   -1.7,   -1.5,   -1.4,   -1.3,   -1.1,   -1.1,   -1.1,   -1.0,   -1.0,   -0.8,  999.0,   -0.7,   -0.8,   -0.8,   -0.7,   -0.5,   -0.3,   -0.1,   -0.0,    0.1,    0.0,    0.1,    0.1,    0.5,    0.4,    0.4,    0.5,    0.4,   -0.2,    0.1,    0.2,   -0.1,  999.0,  999.0,  999.0,  999.0,  999.0
